• Join FlightAware (Why Join?)
  • Login
  • US Flag 
03:31AM EDT


 

Airport Tracker/Info


-or-


 

Live Flight TrackerFlight Track Log ✈ LNE1541 ✈ 25-Oct-2013 ✈ SEQM / UIO - SECU / CUE

Flight Track Log - Related Links

Times and Time Zones

All times are in EDT time to prevent confusion due to time zone crossing. See the LNE1541 flight status page for this flight to view local times or setup timezone preferences in your user account.

Time Position Orientation Groundspeed Altitude Reporting Facility
EDT Latitude Longitude Course Direction KTS MPH feet Rate Location/Type
07:15AM -0.0010 -78.3670 325° Northwest 271 312 11,200  Level FlightAware
07:15AM 0.0120 -78.3960 294° West 281 323 12,300 2,400 Climbing FlightAware
07:16AM -0.0260 -78.4320 223° Southwest 282 325 14,100 2,040 Climbing FlightAware
07:16AM -0.0850 -78.4350 183° South 312 359 15,300 2,040 Climbing FlightAware
07:17AM -0.1530 -78.4430 187° South 322 371 17,100 2,160 Climbing FlightAware
07:18AM -0.2090 -78.4490 186° South 333 383 18,400 1,500 Climbing FlightAware
07:18AM -0.2740 -78.4570 187° South 367 422 19,000 480 Climbing FlightAware
07:19AM -0.3360 -78.4640 186° South 367 422 19,100 60 Climbing FlightAware
07:20AM -0.4050 -78.4710 186° South 367 422 19,100  Level FlightAware
07:21AM -0.4740 -78.4780 186° South 367 422 19,100 4,140 Level FlightAware
07:21AM -0.5470 -78.5230 212° Southwest 392 451 23,900 5,400 Climbing FlightAware
07:22AM -0.6310 -78.5450 195° South 401 461 25,100 1,440 Climbing FlightAware
07:23AM -0.7080 -78.5650 195° South 413 475 26,000 1,380 Climbing FlightAware
07:23AM -0.8070 -78.5910 195° South 421 484 27,300 1,380 Climbing FlightAware
07:24AM -0.8980 -78.6150 195° South 432 497 28,300 1,080 Climbing FlightAware
07:25AM -0.9830 -78.6380 195° South 418 481 29,000 480 Climbing FlightAware
07:26AM -1.0570 -78.6570 194° South 415 478 29,000  Level FlightAware
07:26AM -1.1130 -78.6670 190° South 418 481 29,000  Level FlightAware
07:27AM -1.2020 -78.6800 188° South 418 481 29,000  Level FlightAware
07:27AM -1.2660 -78.6890 188° South 417 480 29,000  Level FlightAware
07:28AM -1.3300 -78.6980 188° South 416 479 29,000  Level FlightAware
07:29AM -1.3970 -78.7080 188° South 416 479 29,000  Level FlightAware
07:29AM -1.4570 -78.7160 188° South 415 478 29,000 -540 Level FlightAware
07:30AM -1.5340 -78.7270 188° South 415 478 28,400 -1,200 Descending FlightAware
07:30AM -1.5920 -78.7360 189° South 408 470 27,600 -1,740 Descending FlightAware
07:31AM -1.6600 -78.7450 188° South 401 461 26,500 -1,800 Descending FlightAware
07:32AM -1.7520 -78.7590 189° South 394 453 25,000 -1,860 Descending FlightAware
07:32AM -1.8330 -78.7700 188° South 386 444 23,600 -1,860 Descending FlightAware
07:33AM -1.8910 -78.7780 188° South 382 440 22,700 -1,740 Descending FlightAware
07:34AM -1.9670 -78.7890 188° South 375 432 21,400 -1,800 Descending FlightAware
07:35AM -2.0510 -78.8010 188° South 368 423 20,000 -1,560 Descending FlightAware
07:35AM -2.1070 -78.8100 189° South 354 407 19,300 -960 Descending FlightAware
07:36AM -2.1770 -78.8200 188° South 325 374 18,800 -660 Descending FlightAware
07:37AM -2.2410 -78.8290 188° South 298 343 18,400 -540 Descending FlightAware
07:38AM -2.3070 -78.8380 188° South 268 308 18,000 -960 Descending FlightAware
07:38AM -2.3480 -78.8440 188° South 286 329 17,100 -1,080 Descending FlightAware
07:39AM -2.4130 -78.8540 189° South 264 304 16,600 -360 Descending FlightAware
07:39AM -2.4530 -78.8590 187° South 244 281 16,600 -360 Level FlightAware
07:40AM -2.4970 -78.8660 189° South 221 254 16,200 -780 Descending FlightAware
07:41AM -2.5370 -78.8720 189° South 206 237 15,600 -1,080 Descending FlightAware
07:42AM -2.5790 -78.8780 188° South 205 236 14,700 -1,140 Descending FlightAware
07:42AM -2.6130 -78.8840 190° South 199 229 14,100 -660 Descending FlightAware
07:43AM -2.6420 -78.8940 199° South 203 234 13,900 -180 Descending FlightAware
07:43AM -2.6690 -78.9030 198° South 203 234 13,900  Level FlightAware
07:44AM -2.7050 -78.9170 201° Southwest 203 234 13,900  Level FlightAware
07:47AM -2.8895 -78.9844 200° South  Level Estimated
07:48AM -2.8895 -78.9844 45° Northeast  Level Estimated
07:49AM -2.8895 -78.9844 45° Northeast  Level Estimated
07:50AM -2.8895 -78.9844 45° Northeast  Level Estimated
07:51AM -2.8895 -78.9844 45° Northeast  Level Estimated
07:52AM -2.8895 -78.9844 45° Northeast  Level Estimated
07:53AM -2.8895 -78.9844 45° Northeast  Level Estimated
07:54AM -2.8895 -78.9844 45° Northeast  Level Estimated
07:55AM -2.8895 -78.9844 45° Northeast  Level Estimated
07:56AM -2.8895 -78.9844 45° Northeast  Level Estimated
07:57AM -2.8895 -78.9844 45° Northeast  Level Estimated
07:58AM -2.8895 -78.9844 45° Northeast  Level Estimated
07:59AM -2.8895 -78.9844 45° Northeast  Level Estimated
08:00AM -2.8895 -78.9844 45° Northeast  Level Estimated
08:01AM -2.8895 -78.9844 45° Northeast  Level Estimated